Volver al catálogo

FALCON 9 R/B

ActivoMEO
NORAD 54757·ROCKET BODY·🇺🇸 United States

Lanzado Dec 16, 2022 desde Cape Canaveral Space Force Station

Loading…

Próximos Pases (próximas 24 horas)

TLE

ActualizadoSource: Space-Track

Época: Sep 14, 2026, 03:35 UTC

1 54757U 22174C   26257.14952397  .00000042  00000-0  00000-0 0  9992
2 54757   9.6147  85.3795 1867294  88.3918 292.8023  7.26281939 99403

Sigue FALCON 9 R/B en tiempo real con AllMySat

Download on the App Store